Orbital Elements at Epoch 2459200.5 (2020-Dec-17.0) TDB
Reference: JPL 24 (heliocentric ecliptic J2000)
Element | Value | Uncertainty (1-sigma) | Units |
e | .1545582234352031 | 1.9068e-08 | |
a | 2.255701657364936 | 5.9167e-09 | au |
q | 1.907064416602769 | 4.3054e-08 | au |
i | 3.925427826135972 | 8.773e-07 | deg |
node | 37.8923791162854 | 1.8254e-05 | deg |
peri | 275.1348916920808 | 1.7981e-05 | deg |
M | 297.8398897544308 | 5.5674e-06 | deg |
tp | 2459414.163427119008 (2021-Jul-18.66342712) | 1.9666e-05 | TDB |
period | 1237.430780913482 3.39 | 4.8687e-06 1.333e-08 | d yr |
n | .2909253637074107 | 1.1446e-09 | deg/d |
Q | 2.604338898127104 | 6.8312e-09 | au |
|
| | Orbit Determination Parameters
Additional Information
|